Regional Weather Roundup
Issued by NWS

Home | Current Version | Previous Version | Graphics & Text | Print | Product List | Glossary On
Versions: 1 2 3 4 5 6 7 8 9 10 11 12 13 14 15 16 17 18 19 20 21 22 23 24 25 26 27 28 29 30 31 32 33 34 35 36 37 38 39 40 41 42 43 44 45 46 47 48 49 50
000
ASUS43 KLSX 292110
RWRMO

WEATHER SUMMARY FOR MISSOURI
NATIONAL WEATHER SERVICE SPRINGFIELD MO
400 PM CDT WED MAR 29 2017

NOTE: "FAIR" INDICATES FEW OR NO CLOUDS BELOW 12,000 FEET WITH NO
       SIGNIFICANT WEATHER AND/OR OBSTRUCTIONS TO VISIBILITY.
       CURRENT SKY AND/OR WEATHER CONDITIONS ARE NOT AVAILABLE FOR
       CHILLICOTHE AND FARMINGTON.

MOZ001>031-035>038-043-044-053-054-292200-
...NORTHERN AND WESTERN MISSOURI...

CITY           SKY/WX    TMP DP  RH WIND       PRES   REMARKS
KANSAS CTY INT CLOUDY    55  52  89 E20G29    29.69F
KANSAS C DTWN  CLOUDY    59  54  83 E16       29.67F
LEE`S SUMMIT   CLOUDY    60  56  86 E15       29.68F
ST JOSEPH      CLOUDY    52  50  93 E14G20    29.72F
CHILLICOTHE      N/A     53  50  89 E12G23    29.79R
KIRKSVILLE     CLOUDY    51  50  96 E13G23    29.82S

$$
MOZ066>068-077>081-088>096-101>105-292200-
...SOUTHWEST MISSOURI...

CITY           SKY/WX    TMP DP  RH WIND       PRES   REMARKS
SPRINGFIELD    CLOUDY    71  59  65 S17G24    29.70F
JOPLIN         PTSUNNY   75  56  51 S23G32    29.65F
BRANSON        CLOUDY    72  55  56 S14G21    29.76S

$$
MOZ032>034-039>042-045>050-055>058-069>072-292200-
...CENTRAL MISSOURI...

CITY           SKY/WX    TMP DP  RH WIND       PRES   REMARKS
COLUMBIA       PTSUNNY   60  54  80 E15G25    29.77S
JEFFERSON CITY MOSUNNY   68  55  63 E15       29.75F
ROLLA          CLOUDY    70  56  61 SE21G29   29.75F
SEDALIA        CLOUDY    62  56  80 E14       29.73S
WHITEMAN AFB   CLOUDY    61  61 100 E9        29.70S
WARRENSBURG    CLOUDY    61  55  82 E14       29.69F

$$
MOZ051-052-059>065-292200-
...EAST CENTRAL MISSOURI...

CITY           SKY/WX    TMP DP  RH WIND       PRES   REMARKS
ST LOUIS INTL  CLOUDY    64  53  67 SE21G28   29.86F
SPIRIT OF STL  CLOUDY    65  55  70 E15G24    29.84F
ST CHARLES     CLOUDY    61  55  81 E21       29.86F

$$
MOZ072>076-082>087-097>100-106>115-292200-
...SOUTH CENTRAL AND SOUTHEAST MISSOURI...

CITY           SKY/WX    TMP DP  RH WIND       PRES   REMARKS
CAPE GIRARDEAU CLOUDY    72  60  66 SE10      29.86S
FARMINGTON     PTSUNNY   69  58  67 SE12      29.86S
POPLAR BLUFF   CLOUDY    75  64  68 SE8       29.82F
WEST PLAINS    CLOUDY    70  60  70 SE13G25   29.80S

$$




USA.gov is the U.S. government's official web portal to all federal, state and local government web resources and services.